Terminal Aerodrome Forecast
Issued by NWS

Current Version | Previous Version | Text Only | Print | Product List | Glossary On
Versions: 1 2 3 4 5 6 7 8 9 10 11 12 13 14 15 16 17 18
000
FTUS44 KBMX 251257 AAA
TAFTOI
TAF AMD
KTOI 251257Z 2513/2612 09003KT P6SM SCT040
      TEMPO 2513/2514 BKN013
     FM251700 11006KT 5SM SHRA VCTS SCT020 BKN040CB
     FM251900 13006KT 3SM TSRA BKN020CB
     FM252100 15006KT P6SM SHRA VCTS SCT025 BKN040CB
     FM260100 14004KT P6SM SCT015 BKN050=

USA.gov is the U.S. government's official web portal to all federal, state and local government web resources and services.